Regional Weather Roundup
Issued by NWS San Diego, CA

Home | Current Version | Previous Version | Text Only | Print | Product List | Glossary On
Versions: 1 2 3 4 5 6 7 8 9 10 11 12 13 14 15 16 17 18 19 20 21 22 23 24 25 26 27 28 29 30 31 32 33 34 35 36 37 38 39 40 41 42 43 44 45 46 47 48 49 50
000
ASUS46 KSGX 101111
RWRSGX

SAN DIEGO HOURLY WEATHER ROUNDUP
NATIONAL WEATHER SERVICE SAN DIEGO CA
300 AM PST WED FEB 10 2016

NOTE: "FAIR" INDICATES FEW OR NO CLOUDS BELOW 12,000 FEET WITH NO
SIGNIFICANT WEATHER AND/OR OBSTRUCTIONS TO VISIBILITY.

CAZ042-043-060-061-PZZ750-775-101200-

GREATER SAN DIEGO AREA

CITY           SKY/WX    TMP DP  RH WIND       PRES   REMARKS
LINDBERGH FLD  CLEAR     61  35  37 N3        30.12R
POINT LOMA       N/A     63  32  31 NE7         N/A
NATIONAL CITY    N/A     56  38  50 CALM      30.11S
CHULA VISTA      N/A     54  36  51 CALM      30.03S
IMPERIAL BEACH CLEAR     60  33  36 N7        30.11R
BROWN FIELD    CLEAR     54  30  40 E7        30.11S
MIRAMAR MCAS   PTCLDY    59  31  34 N5        30.11R
MONTGOMERY FLD CLEAR     54  35  48 CALM      30.11S

$$

NORTH SAN DIEGO COUNTY

CITY           SKY/WX    TMP DP  RH WIND       PRES   REMARKS
CAMP PENDLETON CLEAR     45  37  73 CALM      30.12S
OCEANSIDE AP   CLEAR     44  35  70 CALM      30.11S
OCEANSIDE HBR    N/A     56  38  50 E6        30.13S
VISTA            N/A     52  37  56 CALM      30.10S
CARLSBAD       CLEAR     57  34  41 E5        30.11R
DEL MAR          N/A     59  41  51 CALM      30.14R
FALLBROOK        N/A     65  28  25 NE1       30.11S
ESCONDIDO        N/A     52  36  53 CALM      30.13R
SAN MARCOS       N/A     61  33  35 CALM      30.09S
POWAY            N/A     48  35  61 CALM      30.14R

$$

EAST SAN DIEGO COUNTY

CITY           SKY/WX    TMP DP  RH WIND       PRES   REMARKS
RAMONA         CLEAR     42  30  62 CALM      30.15R
SANTEE LAKES     N/A     48  36  64 CALM      30.12R
LA MESA          N/A     61  29  29 CALM      30.04S
JAMUL            N/A     54  29  39 CALM      30.11S
DESCANSO N       N/A     57  13  17 E3        30.01S
MT. LAGUNA OBS   N/A     58  -3   8 E8        29.86S
CAMPO            N/A     39  23  52 CALM      30.17S

$$

ORANGE COUNTY AND THE LOS ANGELES BASIN

CITY           SKY/WX    TMP DP  RH WIND       PRES   REMARKS
JOHN WAYNE AP  CLEAR     56  40  55 N5        30.10F
LAGUNA BEACH     N/A     56  37  48 CALM      30.05F
LAKE FOREST FR   N/A     65  20  18 NE1       29.97F
HUNTINGTON BCH   N/A     51  46  84 CALM      30.12S
LOS ALAMITOS   FAIR      56  39  52 CALM      30.10S
FULLERTON      CLEAR     57  33  40 E6        30.10S
LONG BEACH     CLEAR     60  38  43 CALM      30.11R
L.A. AP        PTCLDY    63  33  32 CALM      30.11S
L.A. DOWNTOWN  CLEAR     66  28  24 N3        30.11R

$$

THE INLAND EMPIRE

CITY           SKY/WX    TMP DP  RH WIND       PRES   REMARKS
CORONA         CLEAR     46  35  65 CALM      30.15S
CHINO          CLEAR     50  36  58 CALM      30.15S
ONTARIO        PTCLDY    56  30  37 E5        30.14S
RIVERSIDE AP   CLEAR     54  29  38 CALM      30.15S
MORENO VALLEY    N/A     64  30  27 CALM      28.27F
MARCH ARB      CLEAR     47  29  48 CALM      30.16F
HORSETHIEF CYN   N/A     59  23  24 W5        30.17R
PERRIS           N/A     57  31  37 SE1       30.20S
HEMET EAST       N/A     62  10  13 CALM      30.04S
FRENCH VALLEY  FAIR      50  32  50 N3        30.17R
TEMECULA         N/A     51  37  58 CALM      30.13S

$$

SAN BERNARDINO AND RIVERSIDE COUNTY MOUNTAINS

CITY           SKY/WX    TMP DP  RH WIND       PRES   REMARKS
BIG BEAR AP    CLEAR     23  19  86 CALM      30.42S
ANGELUS OAKS     N/A     46  22  39 CALM      30.16F
PINE COVE        N/A     56   4  12 N2        30.13F

$$

SOUTHERN DESERT INCLUDING THE COACHELLA VALLEY

CITY           SKY/WX    TMP DP  RH WIND       PRES   REMARKS
PALM SPRINGS   CLEAR     61  25  25 NW7       30.15F
THOUSAND PALMS   N/A     59  25  27 W2        30.12F
PALM DESERT      N/A     55  36  49 SW1       29.05S
THERMAL        CLEAR     50  32  50 N5        30.10F
BLYTHE         CLEAR     56  24  29 SW3       30.15F
IMPERIAL AP    CLEAR     51  30  44 W5        30.11F
EL CENTRO NAS  CLEAR     53  23  31 W9        30.13F
YUMA AZ        CLEAR     64  24  21 N6        30.12F

$$

UPPER DESERT

CITY           SKY/WX    TMP DP  RH WIND       PRES   REMARKS
VICTORVILLE AP CLEAR     41  21  45 CALM      30.28S
HESPERIA         N/A     46  25  43 CALM      30.40S
APPLE VALLEY     N/A     36  24  62 CALM      30.29S
PALMDALE       CLEAR     39  27  62 CALM      30.27F
LANCASTER      CLEAR     37  28  70 W3        30.28S
EDWARDS AFB    CLEAR     38  27  63 SW7       30.25F WCI  33
DAGGETT        PTCLDY    48  23  37 W10       30.26S
29 PALMS N     CLEAR     43  19  38 NW8       30.31R
NEEDLES        PTCLDY    58  27  30 NW8       30.19S

$$

REGIONAL REPORTS

CITY           SKY/WX    TMP DP  RH WIND       PRES   REMARKS
SANTA BARBARA  CLEAR     48  41  76 CALM      30.11F
SANDBERG       CLEAR    N/A N/A N/A NE10      30.32F
LAS VEGAS NV   MOCLDY    50  28  42 SW3       30.24R
PHOENIX AZ     CLEAR     57  31  37 CALM      30.15S
TIJUANA        CLEAR     61  23  23 SE3       30.13F
ENSENADA NW      N/A     68  32  26 N12       30.06S

$$

OFFSHORE ISLANDS

CITY           SKY/WX    TMP DP  RH WIND       PRES   REMARKS
CATALINA ARPT  CLEAR     71  22  15 N6        30.17S
SAN NICOLAS IS CLEAR    N/A N/A N/A NW13      30.13S

$$

MARINE AND OFFSHORE BUOY REPORTS

STATION/POSITION SKY/WX   TEMP    WIND        PRES    SWELL
                          AIR SEA DIR/SP/G            HT/PER/DIR
                          (F)     (DEG/KT/KT) (MB)    (FT/S/D)
TANNER BANKS               61 59  310/  6/  8 1019.8F   5/310/15
S CLEMENTE BASIN           62 61   40/  4/  6 1019.2F   3/290/14
SAN NICOLAS IS.               58                N/A     3/290/14
SO. S. ROSA ISLA           63 59              1019.0F
W. S. BARBARA CH           61 57  310/  6/  8 1019.4F   3/300/14
M. S. BARBARA CH           58 58   50/  2/  4 1020.5S
S. MONICA BASIN            63 60  330/ 12/ 14 1019.6F   3/260/14
S PEDRO CHANNEL               60                N/A     2/270/14
DANA POINT                    60                N/A     2/280/14
OCEANSIDE OFFSHR              60                N/A     2/250/13
TORREY PINES OTR              60                N/A     3/280/14
LA JOLLA 1                 62 59   40/  2/  3 1019.5R
SAN DIEGO BAY                 61              1020.1R
POINT LOMA SOUTH              61                N/A     3/290/14

$$




USA.gov is the U.S. government's official web portal to all federal, state and local government web resources and services.